Hurghada, Egypt

9:14 PM EET on October 17, 2018 (GMT +0200)
Hurghada

Weather History for HEGN - October, 2018

Change the Weather History Date:

Friday, October 12, 2018

  Actual Average Record
Temperature  
Mean Temperature 80 °F -  
Max Temperature 88 °F 82 °F 104 °F (2016)
Min Temperature 72 °F 67 °F 68 °F (2003)
Cooling Degree Days 15    
Growing Degree Days 30 (Base 50)    
Moisture  
Dew Point 52 °F    
Average Humidity 37    
Maximum Humidity 61    
Minimum Humidity 21    
Precipitation  
Precipitation 0.00 in - - ()
Sea Level Pressure  
Sea Level Pressure 29.89 in    
Wind  
Wind Speed 13 mph ()    
Max Wind Speed 23 mph    
Max Gust Speed -    
Visibility 6.0 miles    
Events      
Averages and records for this station are not official NWS values.
T = Trace of Precipitation, MM = Missing Value Source: Averaged Metar Reports

Daily Weather History Graph

Daily Weather History Graph

Search for Another Location

Airport or City:

Astronomy

Oct. 12, 2018 Rise Set
Actual Time 5:43 AM EET 5:19 PM EET
Civil Twilight 5:19 AM EET 5:43 PM EET
Nautical Twilight 4:52 AM EET 6:10 PM EET
Astronomical Twilight 4:25 AM EET 6:37 PM EET
Moon 8:43 AM EET (10/12) 7:56 PM EET (10/12)
Length of Visible Light 12h 23m
Length of Day
11h 36m
Waxing Crescent, 12% of the Moon is Illuminated
Oct 12
Waxing Crescent
Oct 16
First Quarter
Oct 24
Full
Oct 31
Last Quarter
Nov 7
New

Hourly Weather History & Observations

Time (EET) Temp. Heat Index Dew Point Humidity Pressure Visibility Wind Dir Wind Speed Gust Speed Precip Events Conditions
12:00 AM 77.0 °F - 50.0 °F 39% 29.89 in - NNW 17.3 mph - N/A   Clear
1:00 AM 77.0 °F - 48.2 °F 36% 29.89 in - NNW 16.1 mph - N/A   Clear
2:00 AM 75 °F - 53 °F 35% 29.89 in 6 mi WNW 12.7 mph - -  
2:00 AM 75.2 °F - 53.6 °F 47% 29.89 in - NW 12.7 mph - N/A   Clear
3:00 AM 73.4 °F - 51.8 °F 47% 29.89 in - NW 12.7 mph - N/A   Clear
4:00 AM 73.4 °F - 53.6 °F 50% 29.89 in - NW 16.1 mph - N/A   Clear
5:00 AM 73 °F - 58 °F 49% 29.91 in 6 mi WNW 12.7 mph - -  
5:00 AM 73.4 °F - 57.2 °F 57% 29.89 in - WNW 12.7 mph - N/A   Clear
7:00 AM 73.4 °F - 59.0 °F 61% 29.89 in - NW 16.1 mph - N/A   Clear
8:00 AM 79 °F - 54 °F 32% 29.94 in 6 mi NNW 12.7 mph - -  
8:00 AM 78.8 °F - 53.6 °F 42% 29.92 in - NNW 12.7 mph - N/A   Clear
9:00 AM 82.4 °F 81.4 °F 53.6 °F 37% 29.95 in - NW 16.1 mph - N/A   Clear
11:00 AM 86 °F - 53 °F 22% 29.91 in 6 mi North 15.0 mph - -  
11:00 AM 86.0 °F 84.2 °F 53.6 °F 33% 29.89 in - North 15.0 mph - N/A   Clear
12:00 PM 87.8 °F 85.7 °F 53.6 °F 31% 29.89 in - North 16.1 mph - N/A   Clear
1:00 PM 87.8 °F 85.7 °F 53.6 °F 31% 29.86 in - North 16.1 mph - N/A   Clear
2:00 PM 88 °F - 54 °F 21% 29.87 in 6 mi NNE 16.1 mph - -  
2:00 PM 87.8 °F 85.7 °F 53.6 °F 31% 29.86 in - North 16.1 mph - N/A   Clear
3:00 PM 87.8 °F - 51.8 °F 29% 29.83 in - North 20.7 mph - N/A   Clear
4:00 PM 86.0 °F - 51.8 °F 31% 29.83 in - North 23.0 mph - N/A   Clear
5:00 PM 84.2 °F 83.5 °F 57.2 °F 40% 29.86 in - North 19.6 mph - N/A   Clear
6:00 PM 82.4 °F 81.4 °F 53.6 °F 37% 29.86 in - North 15.0 mph - N/A   Clear
7:00 PM 80.6 °F - 50.0 °F 34% 29.89 in - NNW 13.8 mph - N/A   Clear
8:00 PM 80 °F - 50 °F 25% 29.92 in 6 mi NNW 12.7 mph - -  
8:00 PM 80.6 °F - 50.0 °F 34% 29.92 in - NNW 12.7 mph - N/A   Clear
9:00 PM 78.8 °F - 44.6 °F 30% 29.92 in - NW 8.1 mph - N/A   Clear
10:00 PM 77.0 °F - 44.6 °F 32% 29.92 in - WNW 9.2 mph - N/A   Clear
11:00 PM 75 °F - 50 °F 30% 29.93 in 6 mi WNW 8.1 mph - -  
11:00 PM 75.2 °F - 50.0 °F 41% 29.92 in - WNW 8.1 mph - N/A   Clear